Other Surface Observations
Issued by NWS Tucson, AZ

Home | Current Version | Previous Version | Text Only | Print | Product List | Glossary On
Versions: 1 2 3 4 5 6 7 8 9 10 11 12 13 14 15 16 17 18 19 20 21 22 23 24 25 26 27 28 29 30 31 32 33 34 35 36 37 38 39 40 41 42 43 44 45 46 47 48 49 50
848
SXUS55 KTWC 250215
OSOTWC

WEATHER ROUNDUP FOR SOUTHEAST ARIZONA
NATIONAL WEATHER SERVICE TUCSON AZ
715 PM MST SUN JUL 24 2016

AZZ504>506-514-250315-
LOCATION       SKY/WX    TMP DP  RH WIND       PRES   REMARKS
TUCSON         CLEAR     98  55  23 NW14      29.93R
DAVIS-MONTHAN  CLEAR     97  56  25 NW15G22   29.91R
CHILDRENS PARK N/A      N/A N/A  21 NW19              PIMA CO DEQ
ALVERNON/22ND  N/A       99 N/A N/A NW9               PIMA CO DEQ
CHERRY/GLENN   N/A      N/A N/A N/A N/A               PIMA CO DEQ
TANGERINE      N/A      100 N/A N/A NW8               PIMA CO DEQ
CONTL RANCH    N/A      101  54  21 NW11              PIMA CO DEQ
GRANT/1ST      N/A      100  54  22 NW14              PIMA CO DEQ
CRAYCROFT/22ND N/A       99  53  22 N/A               PIMA CO DEQ
GOLFLINKS/KOLB N/A      N/A N/A N/A N/A               PIMA CO DEQ
AJO/12TH       N/A       99  53  22 NW12              PIMA CO DEQ
SAGUARO EAST   N/A       37   3  23 NW13              PIMA CO DEQ
FAIRGROUNDS    N/A       98 N/A N/A N/A               PIMA CO DEQ
SAGUARO        N/A      101  56  23 NW6G19            *SABINO CYN
SAN CARLOS     N/A       99  58  26 NE3G19            *SAN CARLOS
GREEN VALLEY   N/A       99  51  20 N8                PIMA CO DEQ
HORSE CAMP CYN N/A       93  55  28 W11G23            *ARAVAIPA CYN
RINCON MTNS    N/A       71  52  51 W3G10             *NR MANNING CAMP
$$

AZZ509>511-250315-
LOCATION       SKY/WX    TMP DP  RH WIND       PRES   REMARKS
SAFFORD        MOCLDY    96  49  20 NW12      29.89S
STRAY HORSE    N/A       69  42  38 N5G10             *
TRAIL CABIN    N/A       78  46  32 NE7G13            *N OF GRANVILLE
BLACK HILLS    NOT AVBL
DRY LAKE       N/A       72  42  34 N7G13             *NATANES MTNS
NOON CREEK     N/A       89  54  30 SW4G14            *PINALENO MTNS
COLUMBINE      N/A       73  49  43 NE3               *PINALENO MTNS
GUTHRIE        N/A       79  47  32 NE17G30           *SW OF GUTHRIE
$$

AZZ502-503-513-250315-
LOCATION       SKY/WX    TMP DP  RH WIND       PRES   REMARKS
NOGALES        PTCLDY    87  58  37 W9        30.04R
SELLS          N/A       99  57  25 NE12G18           *
SASABE         N/A       88  65  46 S11G20            *ALTAR VLY
HOPKINS        N/A       76  51  42 NW9G21            *SANTA RITA MTNS
CARR CYN       N/A       84  53  34 N3G10             *W OF HEREFORD
$$

AZZ507-508-512-250315-
LOCATION       SKY/WX    TMP DP  RH WIND       PRES   REMARKS
SIERRA VISTA   PTCLDY    89  53  29 NW16      30.09R
DOUGLAS        PTCLDY    92  55  28 NW18      29.98S
EMPIRE MTNS    NOT AVBL
MULESHOE RANCH N/A       91  51  26 NW13G23           *PRESERVE
HEADQUARTERS   N/A       90  54  30 W9G18             *CHIRICAHUA MTNS
$$

.............................NOTES.............................
THIS IS AN AUTOMATED COLLECTIVE WITH MINIMAL QUALITY CONTROL.
PIMA CO DEQ SITES HAVE NONSTANDARD WIND SENSOR HEIGHTS.
PIMA CO DEQ SITES DO NOT REPORT WIND GUSTS.
* INDICATES WIND SENSORS LOCATED AT 20 FEET INSTEAD OF 33 FEET.
..............................KEY..............................
SKY/WX - SKY CONDITION/WEATHER
TMP    - TEMPERATURE IN FAHRENHEIT
DP     - DEWPOINT IN FAHRENHEIT
RH     - RELATIVE HUMIDITY IN PERCENT
WIND   - DIRECTION AND SPEED IN MILES PER HOUR (MPH)
VRB    - VARIABLE WIND DIRECTION
PRES   - MEAN SEA LEVEL PRESSURE IN INCHES OF MERCURY
         F - FALLING PRESSURE   R - RISING PRESSURE
         S - STEADY PRESSURE
VSB    - VISIBILITY IN MILES
HX     - HEAT INDEX IN FAHRENHEIT
WCI    - WIND CHILL INDEX IN FAHRENHEIT
N/A    - NOT AVAILABLE
AFB    - AIR FORCE BASE
         DAVIS-MONTHAN IS DAVIS-MONTHAN AIR FORCE BASE
CYN    - CANYON
MTNS   - MOUNTAINS
NCA    - NATIONAL CONSERVATION AREA
NR     - NEAR
VLY    - VALLEY
CONTL  - CONTINENTAL
PIMA CO DEQ - PIMA COUNTY DEPT OF ENVIRONMENTAL QUALITY



USA.gov is the U.S. government's official web portal to all federal, state and local government web resources and services.